Date_and_time,latitude,longitude,wind_speed,RelWindDirFrom,WindDirFrom,air_pressure,air_temperature,relative_humidity,Temp,platform_speed_wrt_ground,air_pressure_at_mean_sea_level,platform_orientation
2018-07-29 23:50,50.6304433333333,-96.98077,7.1,9.7,222,989.70,28.2,30,23.62,0.0,1015.12,167.4
2018-07-30 00:00,50.630445,-96.9807683333333,5.8,8.1,234,989.64,28.3,30,23.63,0.0,1015.04,90.0
2018-07-30 00:10,50.6304416666667,-96.980765,6.0,8.0,216,989.60,28.2,30,23.55,0.0,1015.01,90.0
2018-07-30 00:20,50.63044,-96.9807633333333,5.6,7.6,206,989.58,28.0,32,23.43,0.0,1015.00,90.0
2018-07-30 00:30,50.6304383333333,-96.9807633333333,4.8,7.0,206,989.58,27.8,34,23.44,0.0,1015.00,90.0
2018-07-30 00:40,50.630435,-96.9807766666667,4.2,5.5,211,989.54,28.0,34,23.46,0.0,1014.92,90.0
2018-07-30 00:50,50.6304383333333,-96.98075,4.5,6.1,216,989.51,28.1,33,23.71,0.0,1014.86,90.0
2018-07-30 01:00,50.63044,-96.980755,4.0,6.2,237,989.58,28.0,35,23.72,0.0,1014.96,0.0
2018-07-30 01:10,50.6304416666667,-96.9807583333333,4.4,6.6,243,989.65,27.5,35,23.48,0.0,1015.01,0.0
2018-07-30 01:20,50.6304433333333,-96.9807616666667,3.8,4.9,240,989.72,27.2,37,23.37,0.0,1015.05,0.0
2018-07-30 01:30,50.630445,-96.9807566666667,3.5,5.0,242,989.75,27.1,37,23.34,0.0,1015.07,0.0
2018-07-30 01:40,50.6304433333333,-96.9807566666667,3.5,4.8,244,989.83,26.6,38,23.32,0.0,1015.18,0.0
2018-07-30 01:50,50.6304433333333,-96.9807583333333,3.2,4.0,241,989.87,26.1,40,23.29,0.0,1015.23,0.0
2018-07-30 02:00,50.6304433333333,-96.9807583333333,2.9,3.8,236,989.88,25.7,42,23.23,0.0,1015.27,90.0
2018-07-30 02:10,50.6304433333333,-96.9807583333333,4.1,6.0,232,989.94,25.2,43,23.17,0.0,1015.36,90.0
2018-07-30 02:20,50.63044,-96.9807583333333,6.5,8.7,239,990.04,24.8,43,23.11,0.0,1015.48,90.0
2018-07-30 02:30,50.63046,-96.980755,5.4,8.0,233,990.13,24.2,45,23.04,0.0,1015.59,90.0
2018-07-30 02:40,50.6304416666667,-96.9807516666667,5.8,8.0,234,990.19,23.8,46,22.96,0.0,1015.67,90.0
2018-07-30 02:50,50.6304416666667,-96.9807566666667,4.6,6.5,233,990.23,23.4,49,22.90,0.0,1015.74,90.0
2018-07-30 03:00,50.6304433333333,-96.9807583333333,4.9,6.5,235,990.32,22.8,52,22.99,0.0,1015.87,90.0
2018-07-30 03:10,50.6304433333333,-96.98076,5.1,6.7,240,990.38,22.4,53,23.13,0.0,1015.96,90.0
2018-07-30 03:20,50.630445,-96.9807583333333,5.5,7.0,237,990.33,22.0,55,23.29,0.0,1015.94,90.0
2018-07-30 03:30,50.630445,-96.9807583333333,5.9,7.3,242,990.30,21.8,55,23.41,0.0,1015.94,90.0
2018-07-30 03:40,50.630445,-96.9807583333333,5.8,7.9,246,990.32,21.7,55,23.33,0.0,1015.98,90.0
2018-07-30 03:50,50.630445,-96.9807566666667,5.7,8.0,246,990.35,21.4,56,23.35,0.0,1016.04,90.0
2018-07-30 04:00,50.630445,-96.9807583333333,5.8,8.3,246,990.35,21.2,56,23.20,0.0,1016.08,90.0
2018-07-30 04:10,50.630445,-96.9807566666667,5.6,8.1,247,990.38,21.0,57,23.15,0.0,1016.13,90.0
2018-07-30 04:20,50.6304783333333,-96.980745,5.6,8.0,250,990.38,21.0,57,23.30,0.0,1016.16,90.0
2018-07-30 04:30,50.6304566666667,-96.9807633333333,5.9,7.7,244,990.46,20.7,58,23.31,0.0,1016.27,90.0
2018-07-30 04:40,50.630445,-96.9807566666667,5.3,6.8,254,990.50,20.5,59,23.26,0.0,1016.34,90.0
2018-07-30 04:50,50.63046,-96.9807566666667,5.1,7.0,250,990.52,20.3,59,23.07,0.0,1016.39,90.0
2018-07-30 05:00,50.6304283333333,-96.980755,5.1,7.0,250,990.52,20.1,61,23.16,0.0,1016.42,161.1
2018-07-30 05:10,50.6304366666667,-96.9807683333333,5.2,7.3,251,990.51,19.9,62,23.24,0.0,1016.44,161.1
2018-07-30 05:20,50.6304366666667,-96.9807566666667,5.3,6.9,247,990.56,19.6,63,23.17,0.0,1016.51,161.1
2018-07-30 05:30,50.63045,-96.9807633333333,5.3,6.9,252,990.64,19.4,64,22.79,0.0,1016.61,161.1
2018-07-30 05:40,50.6304516666667,-96.9807616666667,5.7,7.0,251,990.63,19.4,64,22.59,0.0,1016.60,161.1
2018-07-30 05:50,50.630455,-96.9807633333333,5.7,7.9,250,990.62,19.2,65,22.68,0.0,1016.62,161.1
2018-07-30 06:00,50.6304566666667,-96.980765,6.0,7.4,251,990.62,19.1,66,22.69,0.0,1016.62,345.5
2018-07-30 06:10,50.6304566666667,-96.980765,6.0,7.7,251,990.60,19.1,67,22.97,0.0,1016.61,345.5
2018-07-30 06:20,50.630455,-96.980765,6.2,8.4,252,990.63,19.0,67,22.92,0.0,1016.66,345.5
2018-07-30 06:30,50.630455,-96.980765,5.1,6.7,258,990.65,19.0,68,22.80,0.0,1016.69,345.5
2018-07-30 06:40,50.630455,-96.9807666666667,5.8,8.2,258,990.68,18.9,68,22.78,0.0,1016.72,345.5
2018-07-30 06:50,50.6304533333333,-96.980765,5.8,8.0,251,990.70,18.8,69,22.58,0.0,1016.77,345.5
2018-07-30 07:00,50.6304416666667,-96.980765,5.6,7.4,249,990.66,18.7,70,22.50,0.0,1016.74,270.0
2018-07-30 07:10,50.630445,-96.9807616666667,5.3,7.2,249,990.53,18.5,71,22.41,0.0,1016.63,270.0
2018-07-30 07:20,50.63044,-96.980775,5.6,7.2,251,990.43,18.2,72,22.55,0.0,1016.55,270.0
2018-07-30 07:30,50.630445,-96.9807733333333,5.4,7.1,250,990.39,18.3,72,22.64,0.0,1016.50,270.0
2018-07-30 07:40,50.6304483333333,-96.9807683333333,5.4,7.0,248,990.31,18.2,73,22.24,0.0,1016.44,270.0
2018-07-30 07:50,50.63045,-96.9807666666667,6.1,8.1,245,990.28,18.0,74,22.12,0.0,1016.41,270.0
2018-07-30 08:00,50.630455,-96.98076,5.9,8.0,248,990.23,18.1,74,22.30,0.0,1016.36,9.8
2018-07-30 08:10,50.6304533333333,-96.98076,6.0,8.2,245,990.17,18.2,74,22.23,0.0,1016.30,9.8
2018-07-30 08:20,50.63045,-96.9807616666667,6.1,8.1,243,990.17,18.1,75,22.16,0.0,1016.30,9.8
2018-07-30 08:30,50.63045,-96.9807633333333,6.0,7.7,238,990.13,17.9,78,22.09,0.0,1016.28,9.8
2018-07-30 08:40,50.63046,-96.9807866666667,6.7,8.6,234,990.04,17.8,80,22.18,0.0,1016.19,9.8
2018-07-30 08:50,50.6304583333333,-96.9807783333333,6.6,8.2,236,989.99,18.0,80,22.14,0.0,1016.14,9.8
2018-07-30 09:00,50.6304483333333,-96.9807666666667,6.3,7.8,233,989.96,18.0,82,22.04,0.0,1016.12,142.0
2018-07-30 09:10,50.63045,-96.980765,6.2,7.4,239,990.03,17.6,85,21.94,0.0,1016.22,142.0
2018-07-30 09:20,50.6304483333333,-96.9807616666667,6.0,7.7,243,990.04,17.4,87,21.80,0.0,1016.24,142.0
2018-07-30 09:30,50.6304483333333,-96.9807616666667,6.1,8.7,246,990.18,17.4,88,21.80,0.0,1016.38,142.0
2018-07-30 09:40,50.6304383333333,-96.98076,6.4,8.0,244,990.25,17.3,90,21.84,0.0,1016.46,142.0
2018-07-30 09:50,50.6304366666667,-96.980745,6.2,8.1,244,990.21,17.3,91,21.77,0.0,1016.42,142.0
2018-07-30 10:00,50.6304433333333,-96.9807483333333,6.6,8.4,245,990.23,17.3,92,21.75,0.0,1016.44,90.0
2018-07-30 10:10,50.63044,-96.9807533333333,6.9,8.2,244,990.22,17.3,92,21.89,0.0,1016.43,90.0
2018-07-30 10:20,50.6304383333333,-96.980755,6.8,9.3,244,990.17,17.4,92,22.04,0.0,1016.38,90.0
2018-07-30 10:30,50.63044,-96.9807583333333,6.6,8.4,241,990.10,17.5,92,22.11,0.0,1016.31,90.0
2018-07-30 10:40,50.6304416666667,-96.98076,6.5,8.4,240,990.06,17.6,92,22.07,0.0,1016.26,90.0
2018-07-30 10:50,50.6304433333333,-96.98076,6.6,8.5,240,990.14,17.7,90,22.21,0.0,1016.34,90.0
2018-07-30 11:00,50.6304416666667,-96.98076,7.0,9.5,244,990.18,17.8,89,22.13,0.0,1016.40,360.0
2018-07-30 11:10,50.6304433333333,-96.9807616666667,6.8,8.7,243,990.26,17.6,90,21.91,0.0,1016.49,360.0
2018-07-30 11:20,50.6304433333333,-96.9807616666667,6.8,8.9,237,990.20,17.6,91,21.89,0.0,1016.43,360.0
2018-07-30 11:30,50.6304433333333,-96.9807633333333,6.9,8.8,236,990.12,17.8,92,21.98,0.0,1016.35,360.0
2018-07-30 11:40,50.6304433333333,-96.9807633333333,6.5,8.9,236,990.00,17.9,92,21.77,0.0,1016.21,360.0
2018-07-30 11:50,50.6304433333333,-96.9807633333333,6.5,9.2,239,989.94,17.9,93,21.84,0.0,1016.15,360.0
2018-07-30 12:00,50.6304433333333,-96.9807633333333,6.3,8.4,241,989.97,18.1,92,21.97,0.0,1016.17,360.0
2018-07-30 12:10,50.630445,-96.9807633333333,6.3,7.8,242,989.92,18.3,90,21.89,0.0,1016.11,360.0
2018-07-30 12:20,50.6304333333333,-96.9807183333333,6.8,9.4,241,989.86,18.5,90,21.81,0.0,1016.04,360.0
2018-07-30 12:30,50.63044,-96.9807483333333,7.0,10.6,243,989.82,18.8,88,21.89,0.0,1015.97,360.0
2018-07-30 12:40,50.6304466666667,-96.9807666666667,6.8,9.2,242,989.82,19.4,85,22.06,0.0,1015.94,360.0
2018-07-30 12:50,50.6304416666667,-96.9807566666667,6.5,9.0,244,989.83,19.9,82,22.21,0.0,1015.93,360.0
2018-07-30 13:00,50.6304433333333,-96.9807566666667,7.3,10.6,242,989.85,20.2,80,22.24,0.0,1015.95,270.0
2018-07-30 13:10,50.6304433333333,-96.9807583333333,6.7,9.5,241,989.80,20.4,79,22.23,0.0,1015.88,270.0
2018-07-30 13:20,50.6304433333333,-96.9807633333333,6.1,8.8,242,989.72,20.8,77,22.19,0.0,1015.77,270.0
2018-07-30 13:30,50.6304433333333,-96.9807633333333,6.4,8.4,236,989.66,21.1,75,22.18,0.0,1015.69,270.0
2018-07-30 13:40,50.6304433333333,-96.9807633333333,5.7,8.2,234,989.70,21.3,74,22.08,0.0,1015.72,270.0
2018-07-30 13:50,50.630445,-96.9807633333333,6.2,9.7,231,989.74,21.4,73,22.14,0.0,1015.75,270.0
2018-07-30 14:00,50.6304733333333,-96.9807833333333,6.2,9.2,230,989.73,21.5,73,22.12,0.0,1015.73,336.3
2018-07-30 14:10,50.63044,-96.980765,6.2,8.5,225,989.73,21.5,73,22.07,0.0,1015.72,336.3
2018-07-30 14:20,50.63044,-96.9807583333333,6.7,8.8,224,989.70,21.7,70,21.92,0.0,1015.67,336.3
2018-07-30 14:30,50.63044,-96.9807566666667,7.3,9.9,231,989.67,22.0,67,22.06,0.0,1015.60,336.3
2018-07-30 14:40,50.6304416666667,-96.9807583333333,6.9,8.9,229,989.68,22.5,65,22.02,0.0,1015.56,336.3
2018-07-30 14:50,50.6304416666667,-96.9807616666667,6.6,9.4,234,989.66,23.2,60,21.96,0.0,1015.49,336.3
2018-07-30 15:00,50.6304416666667,-96.9807633333333,6.6,8.9,236,989.61,23.8,58,22.05,0.0,1015.41,0.0
2018-07-30 15:10,50.6304433333333,-96.980765,6.7,9.1,225,989.63,24.2,57,22.06,0.0,1015.40,0.0
2018-07-30 15:20,50.630445,-96.980765,5.1,8.0,232,989.64,24.7,55,22.00,0.0,1015.37,0.0
2018-07-30 15:30,50.630445,-96.9807633333333,5.0,8.5,256,989.58,25.3,52,22.00,0.0,1015.28,0.0
2018-07-30 15:40,50.630445,-96.9807633333333,5.1,8.1,228,989.45,25.6,50,22.07,0.0,1015.12,0.0
2018-07-30 15:50,50.630445,-96.9807616666667,3.8,7.9,222,989.41,25.8,49,21.95,0.0,1015.07,0.0
2018-07-30 16:00,50.630445,-96.9807616666667,5.3,7.4,211,989.30,25.9,48,22.03,0.0,1014.95,0.0
2018-07-30 16:10,50.630445,-96.9807616666667,5.3,8.5,215,989.27,26.1,48,21.99,0.0,1014.90,0.0
2018-07-30 16:20,50.63044,-96.9807633333333,6.2,8.9,210,989.26,26.3,47,21.89,0.0,1014.87,0.0
2018-07-30 16:30,50.63045,-96.9807633333333,4.6,7.5,220,989.19,26.7,45,22.02,0.0,1014.77,0.0
2018-07-30 16:40,50.630435,-96.9807366666667,5.4,9.2,206,989.21,27.1,43,21.95,0.0,1014.73,0.0
2018-07-30 16:50,50.6304416666667,-96.980745,5.6,8.0,136,989.21,25.6,64,21.77,0.0,1014.77,0.0
2018-07-30 17:00,50.6304433333333,-96.98075,6.2,11.4,132,989.15,25.4,60,21.75,0.0,1014.70,149.2
2018-07-30 17:10,50.6304433333333,-96.9807533333333,3.8,9.3,128,989.17,25.5,59,21.70,0.0,1014.70,149.2
2018-07-30 17:20,50.6304416666667,-96.9807566666667,3.3,12.4,150,989.12,26.5,51,21.77,0.0,1014.57,149.2
2018-07-30 17:30,50.6304433333333,-96.9807583333333,7.9,15.5,228,989.08,28.1,32,21.79,0.0,1014.46,149.2
2018-07-30 17:40,50.6304433333333,-96.9807583333333,10.1,15.2,220,988.95,28.6,32,21.75,0.0,1014.30,149.2
2018-07-30 17:50,50.6304433333333,-96.98076,11.2,17.7,222,988.82,28.6,31,21.69,0.0,1014.16,149.2
2018-07-30 18:00,50.630445,-96.9807633333333,11.0,15.2,222,988.76,28.4,32,21.63,0.0,1014.09,0.0
2018-07-30 18:10,50.630435,-96.98077,9.4,14.8,246,988.72,28.3,34,21.85,0.0,1014.05,0.0
2018-07-30 18:20,50.6304383333333,-96.9807616666667,7.0,10.6,254,988.76,28.2,35,22.27,0.0,1014.08,0.0
2018-07-30 18:30,50.6304383333333,-96.9807633333333,6.6,10.9,242,988.75,28.1,35,22.47,0.0,1014.05,0.0
2018-07-30 18:40,50.63044,-96.9807633333333,6.9,10.2,246,988.67,28.2,33,22.89,0.0,1014.03,0.0
2018-07-30 18:50,50.6304416666667,-96.9807633333333,6.0,9.3,249,988.58,28.4,32,22.72,0.0,1013.93,0.0
2018-07-30 19:00,50.6304183333333,-96.9807183333333,5.7,10.0,246,988.58,28.5,32,22.54,0.0,1013.93,140.5
2018-07-30 19:10,50.6304716666667,-96.9807983333333,5.8,9.7,245,988.56,28.8,30,22.71,0.0,1013.85,140.5
2018-07-30 19:20,50.630455,-96.9807683333333,8.1,15.8,248,988.58,28.6,31,22.49,0.0,1013.81,140.5
2018-07-30 19:30,50.63045,-96.9807666666667,10.5,15.7,246,988.71,27.4,35,22.26,0.0,1013.98,140.5
2018-07-30 19:40,50.63045,-96.9807683333333,5.8,10.3,224,988.58,27.1,33,22.26,0.0,1013.86,140.5
2018-07-30 19:50,50.6304483333333,-96.9807666666667,4.3,6.4,205,988.46,27.4,33,22.03,0.0,1013.73,140.5
2018-07-30 20:00,50.6304483333333,-96.9807666666667,2.9,4.0,191,988.37,27.6,32,21.88,0.0,1013.64,305.3
2018-07-30 20:10,50.630435,-96.98076,3.5,4.4,169,988.29,27.7,33,22.19,0.0,1013.55,305.3
2018-07-30 20:20,50.630445,-96.98076,4.1,7.6,161,988.18,27.9,33,22.29,0.0,1013.43,305.3
2018-07-30 20:30,50.6304433333333,-96.9807633333333,4.8,8.1,217,988.06,28.5,30,22.19,0.0,1013.28,305.3
2018-07-30 20:40,50.6304416666667,-96.9807633333333,4.9,12.7,229,987.92,29.2,29,21.99,0.0,1013.09,305.3
2018-07-30 20:50,50.6304416666667,-96.9807533333333,8.3,13.1,242,987.93,29.6,28,21.79,0.0,1013.09,305.3
2018-07-30 21:00,50.6304566666667,-96.9807616666667,8.2,12.0,233,987.90,29.4,28,21.86,0.0,1013.05,14.5
2018-07-30 21:10,50.6304316666667,-96.98076,7.1,11.3,225,987.80,29.4,29,21.88,0.0,1012.96,14.5
2018-07-30 21:20,50.63044,-96.980765,8.0,11.7,223,987.79,29.4,29,21.83,0.0,1013.00,14.5
2018-07-30 21:30,50.6304483333333,-96.98077,8.5,13.2,232,987.75,29.7,27,21.73,0.0,1012.96,14.5
2018-07-30 21:40,50.63044,-96.98077,8.3,12.8,239,987.67,29.9,26,21.85,0.0,1012.86,14.5
2018-07-30 21:50,50.6304333333333,-96.9807716666667,8.3,12.2,237,987.63,29.8,27,21.98,0.0,1012.81,14.5
2018-07-30 22:00,50.630445,-96.9807533333333,9.5,14.1,229,987.67,29.9,26,22.18,0.0,1012.84,326.3
2018-07-30 22:10,50.630445,-96.9807466666667,6.7,11.1,220,987.56,29.7,27,22.29,0.0,1012.73,326.3
2018-07-30 22:20,50.6304466666667,-96.9807516666667,7.3,12.2,245,987.48,29.8,27,22.13,0.0,1012.61,326.3
2018-07-30 22:30,50.6304466666667,-96.9807533333333,6.1,10.0,245,987.46,29.6,27,22.01,0.0,1012.57,326.3
2018-07-30 22:40,50.6304466666667,-96.980755,6.5,11.2,239,987.39,29.7,28,21.94,0.0,1012.48,326.3
2018-07-30 22:50,50.6304466666667,-96.9807583333333,8.4,11.5,230,987.27,29.7,28,21.80,0.0,1012.37,326.3
2018-07-30 23:00,50.6304466666667,-96.9807583333333,8.0,11.7,227,987.21,29.6,28,21.71,0.0,1012.31,90.0
2018-07-30 23:10,50.6304466666667,-96.9807733333333,5.2,8.6,226,987.05,29.2,29,21.64,0.0,1012.16,90.0
2018-07-30 23:20,50.6304466666667,-96.980765,5.1,6.7,231,987.06,28.7,31,21.58,0.0,1012.18,90.0
2018-07-30 23:30,50.6304433333333,-96.980765,5.2,7.9,227,987.03,28.4,32,21.54,0.0,1012.16,90.0
